{"data":{"norad_id":51722,"epoch":"2026-09-19T22:38:05.927424Z","epoch_age_seconds":96516,"freshness":"FRESH","line1":"1 51722U 22016J   26262.94312416 -.00000764  00000+0 -10994-4 0  9991","line2":"2 51722  53.1606 166.0470 0001489  74.1806 285.9362 15.35406620252895","mean_motion":15.3540662,"eccentricity":0.0001489,"inclination_deg":53.1606,"raan_deg":166.047,"arg_perigee_deg":74.1806,"mean_anomaly_deg":285.9362,"bstar":-1.0994e-5,"rev_number":25289,"period_min":93.786231037613,"perigee_km":458.69483226695,"apogee_km":460.73114399341,"semimajor_km":6837.8499881302,"source":"CELESTRAK","updated_at":"2026-09-20T09:00:39.599896Z"}}